"FRM_AIS_EDR_2004.DAT           ",2005-08-06T21:01:34.77 ,"1/0071442089.40362",    0,    0,  166082,"AIS","B1","B1","B1","B1","PISd",0,0,0,1,"B1", 0,15,   0, 0,    0,"AIS","N/A    ","OK ","OK ",    001178.900,    -055.157,    0129.273,    0015.653,    0049.857
"FRM_AIS_EDR_2004.DAT           ",2005-08-06T21:01:42.31 ,"1/0071442097.10425",    0,    1,  166082,"AIS","B1","B1","B1","B1","PISd",0,0,0,1,"B1", 0,15,   0, 0,    0,"AIS","N/A    ","OK ","OK ",    001168.518,    -054.830,    0129.302,    0015.658,    0049.810
"FRM_AIS_EDR_2004.DAT           ",2005-08-06T21:01:49.86 ,"1/0071442104.46025",    0,    2,  166082,"AIS","B1","B1","B1","B1","PISd",0,0,0,1,"B1", 0,15,   0, 0,    0,"AIS","N/A    ","OK ","OK ",    001158.167,    -054.503,    0129.330,    0015.661,    0049.764
"FRM_AIS_EDR_2004.DAT           ",2005-08-06T21:01:57.40 ,"1/0071442112.16088",    0,    3,  166082,"AIS","B1","B1","B1","B1","PISd",0,0,0,1,"B1", 0,15,   0, 0,    0,"AIS","N/A    ","OK ","OK ",    001147.848,    -054.174,    0129.357,    0015.665,    0049.720
"FRM_AIS_EDR_2004.DAT           ",2005-08-06T21:02:04.94 ,"1/0071442119.51687",    0,    4,  166082,"AIS","B1","B1","B1","B1","PISd",0,0,0,1,"B1", 0,15,   0, 0,    0,"AIS","N/A    ","OK ","OK ",    001137.562,    -053.843,    0129.384,    0015.669,    0049.676
"FRM_AIS_EDR_2004.DAT           ",2005-08-06T21:02:12.49 ,"1/0071442127.21751",    0,    5,  166082,"AIS","B1","B1","B1","B1","PISd",0,0,0,1,"B1", 0,15,   0, 0,    0,"AIS","N/A    ","OK ","OK ",    001127.308,    -053.511,    0129.410,    0015.673,    0049.635
"FRM_AIS_EDR_2004.DAT           ",2005-08-06T21:02:20.03 ,"1/0071442134.57350",    0,    6,  166082,"AIS","B1","B1","B1","B1","PISd",0,0,0,1,"B1", 0,15,   0, 0,    0,"AIS","N/A    ","OK ","OK ",    001117.087,    -053.177,    0129.436,    0015.676,    0049.594
"FRM_AIS_EDR_2004.DAT           ",2005-08-06T21:02:27.57 ,"1/0071442142.27414",    0,    7,  166082,"AIS","B1","B1","B1","B1","PISd",0,0,0,1,"B1", 0,15,   0, 0,    0,"AIS","N/A    ","OK ","OK ",    001106.900,    -052.842,    0129.461,    0015.680,    0049.555
"FRM_AIS_EDR_2004.DAT           ",2005-08-06T21:02:35.12 ,"1/0071442149.63013",    0,    8,  166082,"AIS","B1","B1","B1","B1","PISd",0,0,0,1,"B1", 0,15,   0, 0,    0,"AIS","N/A    ","OK ","OK ",    001096.748,    -052.505,    0129.485,    0015.684,    0049.518
"FRM_AIS_EDR_2004.DAT           ",2005-08-06T21:02:42.66 ,"1/0071442157.33076",    0,    9,  166082,"AIS","B1","B1","B1","B1","PISd",0,0,0,1,"B1", 0,15,   0, 0,    0,"AIS","N/A    ","OK ","OK ",    001086.631,    -052.167,    0129.509,    0015.688,    0049.482
"FRM_AIS_EDR_2004.DAT           ",2005-08-06T21:02:50.20 ,"1/0071442165.03140",    0,   10,  166082,"AIS","B1","B1","B1","B1","PISd",0,0,0,1,"B1", 0,15,   0, 0,    0,"AIS","N/A    ","OK ","OK ",    001076.549,    -051.827,    0129.532,    0015.691,    0049.448
"FRM_AIS_EDR_2004.DAT           ",2005-08-06T21:02:57.75 ,"1/0071442172.38739",    0,   11,  166082,"AIS","B1","B1","B1","B1","PISd",0,0,0,1,"B1", 0,15,   0, 0,    0,"AIS","N/A    ","OK ","OK ",    001066.502,    -051.486,    0129.554,    0015.694,    0049.415
"FRM_AIS_EDR_2004.DAT           ",2005-08-06T21:03:05.29 ,"1/0071442180.08802",    0,   12,  166082,"AIS","B1","B1","B1","B1","PISd",0,0,0,1,"B1", 0,15,   0, 0,    0,"AIS","N/A    ","OK ","OK ",    001056.493,    -051.143,    0129.576,    0015.698,    0049.384
"FRM_AIS_EDR_2004.DAT           ",2005-08-06T21:03:12.83 ,"1/0071442187.44402",    0,   13,  166082,"AIS","B1","B1","B1","B1","PISd",0,0,0,1,"B1", 0,15,   0, 0,    0,"AIS","N/A    ","OK ","OK ",    001046.520,    -050.798,    0129.597,    0015.701,    0049.354
"FRM_AIS_EDR_2004.DAT           ",2005-08-06T21:03:20.38 ,"1/0071442195.14465",    0,   14,  166082,"AIS","B1","B1","B1","B1","PISd",0,0,0,1,"B1", 0,15,   0, 0,    0,"AIS","N/A    ","OK ","OK ",    001036.585,    -050.452,    0129.618,    0015.705,    0049.326
"FRM_AIS_EDR_2004.DAT           ",2005-08-06T21:03:27.92 ,"1/0071442202.50064",    0,   15,  166082,"AIS","B1","B1","B1","B1","PISd",0,0,0,1,"B1", 0,15,   0, 0,    0,"AIS","N/A    ","OK ","OK ",    001026.688,    -050.105,    0129.639,    0015.708,    0049.300
"FRM_AIS_EDR_2004.DAT           ",2005-08-06T21:03:35.46 ,"1/0071442210.20128",    0,   16,  166082,"AIS","B1","B1","B1","B1","PISd",0,0,0,1,"B1", 0,15,   0, 0,    0,"AIS","N/A    ","OK ","OK ",    001016.829,    -049.755,    0129.658,    0015.712,    0049.276
"FRM_AIS_EDR_2004.DAT           ",2005-08-06T21:03:43.01 ,"1/0071442217.55727",    0,   17,  166082,"AIS","B1","B1","B1","B1","PISd",0,0,0,1,"B1", 0,15,   0, 0,    0,"AIS","N/A    ","OK ","OK ",    001007.010,    -049.405,    0129.678,    0015.715,    0049.253
"FRM_AIS_EDR_2004.DAT           ",2005-08-06T21:03:50.55 ,"1/0071442225.25790",    0,   18,  166082,"AIS","B1","B1","B1","B1","PISd",0,0,0,1,"B1", 0,15,   0, 0,    0,"AIS","N/A    ","OK ","OK ",    000997.230,    -049.052,    0129.697,    0015.718,    0049.232
"FRM_AIS_EDR_2004.DAT           ",2005-08-06T21:03:58.09 ,"1/0071442232.61390",    0,   19,  166082,"AIS","B1","B1","B1","B1","PISd",0,0,0,1,"B1", 0,15,   0, 0,    0,"AIS","N/A    ","OK ","OK ",    000987.491,    -048.698,    0129.715,    0015.722,    0049.213
"FRM_AIS_EDR_2004.DAT           ",2005-08-06T21:04:05.63 ,"1/0071442240.31453",    0,   20,  166082,"AIS","B1","B1","B1","B1","PISd",0,0,0,1,"B1", 0,15,   0, 0,    0,"AIS","N/A    ","OK ","OK ",    000977.793,    -048.343,    0129.733,    0015.725,    0049.195
"FRM_AIS_EDR_2004.DAT           ",2005-08-06T21:04:13.18 ,"1/0071442248.01516",    0,   21,  166082,"AIS","B1","B1","B1","B1","PISd",0,0,0,1,"B1", 0,15,   0, 0,    0,"AIS","N/A    ","OK ","OK ",    000968.135,    -047.986,    0129.750,    0015.728,    0049.180
"FRM_AIS_EDR_2004.DAT           ",2005-08-06T21:04:20.72 ,"1/0071442255.37116",    0,   22,  166082,"AIS","B1","B1","B1","B1","PISd",0,0,0,1,"B1", 0,15,   0, 0,    0,"AIS","N/A    ","OK ","OK ",    000958.520,    -047.627,    0129.767,    0015.731,    0049.166
"FRM_AIS_EDR_2004.DAT           ",2005-08-06T21:04:28.26 ,"1/0071442263.07179",    0,   23,  166082,"AIS","B1","B1","B1","B1","PISd",0,0,0,1,"B1", 0,15,   0, 0,    0,"AIS","N/A    ","OK ","OK ",    000948.948,    -047.267,    0129.784,    0015.734,    0049.154
"FRM_AIS_EDR_2004.DAT           ",2005-08-06T21:04:35.81 ,"1/0071442270.42778",    0,   24,  166082,"AIS","B1","B1","B1","B1","PISd",0,0,0,1,"B1", 0,15,   0, 0,    0,"AIS","N/A    ","OK ","OK ",    000939.419,    -046.905,    0129.800,    0015.738,    0049.144
"FRM_AIS_EDR_2004.DAT           ",2005-08-06T21:04:43.35 ,"1/0071442278.12842",    0,   25,  166082,"AIS","B1","B1","B1","B1","PISd",0,0,0,1,"B1", 0,15,   0, 0,    0,"AIS","N/A    ","OK ","OK ",    000929.933,    -046.542,    0129.815,    0015.741,    0049.136
"FRM_AIS_EDR_2004.DAT           ",2005-08-06T21:04:50.89 ,"1/0071442285.48441",    0,   26,  166082,"AIS","B1","B1","B1","B1","PISd",0,0,0,1,"B1", 0,15,   0, 0,    0,"AIS","N/A    ","OK ","OK ",    000920.492,    -046.177,    0129.831,    0015.744,    0049.130
"FRM_AIS_EDR_2004.DAT           ",2005-08-06T21:04:58.44 ,"1/0071442293.18504",    0,   27,  166082,"AIS","B1","B1","B1","B1","PISd",0,0,0,1,"B1", 0,15,   0, 0,    0,"AIS","N/A    ","OK ","OK ",    000911.096,    -045.810,    0129.845,    0015.747,    0049.126
"FRM_AIS_EDR_2004.DAT           ",2005-08-06T21:05:05.98 ,"1/0071442300.54104",    0,   28,  166082,"AIS","B1","B1","B1","B1","PISd",0,0,0,1,"B1", 0,15,   0, 0,    0,"AIS","N/A    ","OK ","OK ",    000901.745,    -045.442,    0129.860,    0015.750,    0049.124
"FRM_AIS_EDR_2004.DAT           ",2005-08-06T21:05:13.52 ,"1/0071442308.24167",    0,   29,  166082,"AIS","B1","B1","B1","B1","PISd",0,0,0,1,"B1", 0,15,   0, 0,    0,"AIS","N/A    ","OK ","OK ",    000892.440,    -045.072,    0129.874,    0015.752,    0049.124
"FRM_AIS_EDR_2004.DAT           ",2005-08-06T21:05:21.07 ,"1/0071442315.59766",    0,   30,  166082,"AIS","B1","B1","B1","B1","PISd",0,0,0,1,"B1", 0,15,   0, 0,    0,"AIS","N/A    ","OK ","OK ",    000883.182,    -044.701,    0129.887,    0015.756,    0049.127
"FRM_AIS_EDR_2004.DAT           ",2005-08-06T21:05:28.61 ,"1/0071442323.29830",    0,   31,  166082,"AIS","B1","B1","B1","B1","PISd",0,0,0,1,"B1", 0,15,   0, 0,    0,"AIS","N/A    ","OK ","OK ",    000873.972,    -044.328,    0129.901,    0015.758,    0049.131
"FRM_AIS_EDR_2004.DAT           ",2005-08-06T21:05:36.15 ,"1/0071442330.65429",    0,   32,  166082,"AIS","B1","B1","B1","B1","PISd",0,0,0,1,"B1", 0,15,   0, 0,    0,"AIS","N/A    ","OK ","OK ",    000864.809,    -043.953,    0129.914,    0015.761,    0049.138
"FRM_AIS_EDR_2004.DAT           ",2005-08-06T21:05:43.70 ,"1/0071442338.35492",    0,   33,  166082,"AIS","B1","B1","B1","B1","PISd",0,0,0,1,"B1", 0,15,   0, 0,    0,"AIS","N/A    ","OK ","OK ",    000855.695,    -043.577,    0129.926,    0015.764,    0049.146
"FRM_AIS_EDR_2004.DAT           ",2005-08-06T21:05:51.24 ,"1/0071442346.05556",    0,   34,  166082,"AIS","B1","B1","B1","B1","PISd",0,0,0,1,"B1", 0,15,   0, 0,    0,"AIS","N/A    ","OK ","OK ",    000846.630,    -043.199,    0129.938,    0015.767,    0049.157
"FRM_AIS_EDR_2004.DAT           ",2005-08-06T21:05:58.78 ,"1/0071442353.41155",    0,   35,  166082,"AIS","B1","B1","B1","B1","PISd",0,0,0,1,"B1", 0,15,   0, 0,    0,"AIS","N/A    ","OK ","OK ",    000837.615,    -042.819,    0129.950,    0015.770,    0049.170
"FRM_AIS_EDR_2004.DAT           ",2005-08-06T21:06:06.33 ,"1/0071442361.11218",    0,   36,  166082,"AIS","B1","B1","B1","B1","PISd",0,0,0,1,"B1", 0,15,   0, 0,    0,"AIS","N/A    ","OK ","OK ",    000828.651,    -042.438,    0129.962,    0015.773,    0049.186
"FRM_AIS_EDR_2004.DAT           ",2005-08-06T21:06:13.87 ,"1/0071442368.46818",    0,   37,  166082,"AIS","B1","B1","B1","B1","PISd",0,0,0,1,"B1", 0,15,   0, 0,    0,"AIS","N/A    ","OK ","OK ",    000819.737,    -042.055,    0129.973,    0015.776,    0049.203
"FRM_AIS_EDR_2004.DAT           ",2005-08-06T21:06:21.41 ,"1/0071442376.16881",    0,   38,  166082,"AIS","B1","B1","B1","B1","PISd",0,0,0,1,"B1", 0,15,   0, 0,    0,"AIS","N/A    ","OK ","OK ",    000810.876,    -041.671,    0129.983,    0015.778,    0049.223
"FRM_AIS_EDR_2004.DAT           ",2005-08-06T21:06:28.96 ,"1/0071442383.52480",    0,   39,  166082,"AIS","B1","B1","B1","B1","PISd",0,0,0,1,"B1", 0,15,   0, 0,    0,"AIS","N/A    ","OK ","OK ",    000802.066,    -041.285,    0129.994,    0015.781,    0049.246
"FRM_AIS_EDR_2004.DAT           ",2005-08-06T21:06:36.50 ,"1/0071442391.22543",    0,   40,  166082,"AIS","B1","B1","B1","B1","PISd",0,0,0,1,"B1", 0,15,   0, 0,    0,"AIS","N/A    ","OK ","OK ",    000793.310,    -040.898,    0130.004,    0015.784,    0049.270
"FRM_AIS_EDR_2004.DAT           ",2005-08-06T21:06:44.04 ,"1/0071442398.58143",    0,   41,  166082,"AIS","B1","B1","B1","B1","PISd",0,0,0,1,"B1", 0,15,   0, 0,    0,"AIS","N/A    ","OK ","OK ",    000784.607,    -040.508,    0130.014,    0015.786,    0049.297
"FRM_AIS_EDR_2004.DAT           ",2005-08-06T21:06:51.59 ,"1/0071442406.28206",    0,   42,  166082,"AIS","B1","B1","B1","B1","PISd",0,0,0,1,"B1", 0,15,   0, 0,    0,"AIS","N/A    ","OK ","OK ",    000775.958,    -040.118,    0130.023,    0015.789,    0049.327
"FRM_AIS_EDR_2004.DAT           ",2005-08-06T21:06:59.13 ,"1/0071442413.63805",    0,   43,  166082,"AIS","B1","B1","B1","B1","PISd",0,0,0,1,"B1", 0,15,   0, 0,    0,"AIS","N/A    ","OK ","OK ",    000767.365,    -039.725,    0130.033,    0015.792,    0049.359
"FRM_AIS_EDR_2004.DAT           ",2005-08-06T21:07:06.67 ,"1/0071442421.33869",    0,   44,  166082,"AIS","B1","B1","B1","B1","PISd",0,0,0,1,"B1", 0,15,   0, 0,    0,"AIS","N/A    ","OK ","OK ",    000758.827,    -039.331,    0130.042,    0015.794,    0049.393
"FRM_AIS_EDR_2004.DAT           ",2005-08-06T21:07:14.21 ,"1/0071442429.03932",    0,   45,  166082,"AIS","B1","B1","B1","B1","PISd",0,0,0,1,"B1", 0,15,   0, 0,    0,"AIS","N/A    ","OK ","OK ",    000750.345,    -038.936,    0130.050,    0015.797,    0049.430
"FRM_AIS_EDR_2004.DAT           ",2005-08-06T21:07:21.76 ,"1/0071442436.39531",    0,   46,  166082,"AIS","B1","B1","B1","B1","PISd",0,0,0,1,"B1", 0,15,   0, 0,    0,"AIS","N/A    ","OK ","OK ",    000741.920,    -038.538,    0130.059,    0015.799,    0049.469
"FRM_AIS_EDR_2004.DAT           ",2005-08-06T21:07:29.30 ,"1/0071442444.09595",    0,   47,  166082,"AIS","B1","B1","B1","B1","PISd",0,0,0,1,"B1", 0,15,   0, 0,    0,"AIS","N/A    ","OK ","OK ",    000733.553,    -038.140,    0130.067,    0015.802,    0049.511
"FRM_AIS_EDR_2004.DAT           ",2005-08-06T21:07:36.84 ,"1/0071442451.45194",    0,   48,  166082,"AIS","B1","B1","B1","B1","PISd",0,0,0,1,"B1", 0,15,   0, 0,    0,"AIS","N/A    ","OK ","OK ",    000725.244,    -037.739,    0130.075,    0015.805,    0049.556
"FRM_AIS_EDR_2004.DAT           ",2005-08-06T21:07:44.39 ,"1/0071442459.15257",    0,   49,  166082,"AIS","B1","B1","B1","B1","PISd",0,0,0,1,"B1", 0,15,   0, 0,    0,"AIS","N/A    ","OK ","OK ",    000716.994,    -037.337,    0130.082,    0015.807,    0049.603
"FRM_AIS_EDR_2004.DAT           ",2005-08-06T21:07:51.93 ,"1/0071442466.50857",    0,   50,  166082,"AIS","B1","B1","B1","B1","PISd",0,0,0,1,"B1", 0,15,   0, 0,    0,"AIS","N/A    ","OK ","OK ",    000708.803,    -036.933,    0130.090,    0015.810,    0049.653
"FRM_AIS_EDR_2004.DAT           ",2005-08-06T21:07:59.47 ,"1/0071442474.20920",    0,   51,  166082,"AIS","B1","B1","B1","B1","PISd",0,0,0,1,"B1", 0,15,   0, 0,    0,"AIS","N/A    ","OK ","OK ",    000700.673,    -036.528,    0130.097,    0015.812,    0049.705
"FRM_AIS_EDR_2004.DAT           ",2005-08-06T21:08:07.02 ,"1/0071442481.56519",    0,   52,  166082,"AIS","B1","B1","B1","B1","PISd",0,0,0,1,"B1", 0,15,   0, 0,    0,"AIS","N/A    ","OK ","OK ",    000692.603,    -036.121,    0130.103,    0015.815,    0049.760
"FRM_AIS_EDR_2004.DAT           ",2005-08-06T21:08:14.56 ,"1/0071442489.26583",    0,   53,  166082,"AIS","B1","B1","B1","B1","PISd",0,0,0,1,"B1", 0,15,   0, 0,    0,"AIS","N/A    ","OK ","OK ",    000684.596,    -035.713,    0130.110,    0015.817,    0049.817
"FRM_AIS_EDR_2004.DAT           ",2005-08-06T21:08:22.10 ,"1/0071442496.62182",    0,   54,  166082,"AIS","B1","B1","B1","B1","PISd",0,0,0,1,"B1", 0,15,   0, 0,    0,"AIS","N/A    ","OK ","OK ",    000676.650,    -035.303,    0130.116,    0015.820,    0049.878
"FRM_AIS_EDR_2004.DAT           ",2005-08-06T21:08:29.65 ,"1/0071442504.32245",    0,   55,  166082,"AIS","B1","B1","B1","B1","PISd",0,0,0,1,"B1", 0,15,   0, 0,    0,"AIS","N/A    ","OK ","OK ",    000668.767,    -034.891,    0130.122,    0015.822,    0049.941
"FRM_AIS_EDR_2004.DAT           ",2005-08-06T21:08:37.19 ,"1/0071442512.02309",    0,   56,  166082,"AIS","B1","B1","B1","B1","PISd",0,0,0,1,"B1", 0,15,   0, 0,    0,"AIS","N/A    ","OK ","OK ",    000660.948,    -034.478,    0130.128,    0015.824,    0050.006
"FRM_AIS_EDR_2004.DAT           ",2005-08-06T21:08:44.73 ,"1/0071442519.37908",    0,   57,  166082,"AIS","B1","B1","B1","B1","PISd",0,0,0,1,"B1", 0,15,   0, 0,    0,"AIS","N/A    ","OK ","OK ",    000653.193,    -034.063,    0130.134,    0015.827,    0050.075
"FRM_AIS_EDR_2004.DAT           ",2005-08-06T21:08:52.28 ,"1/0071442527.07971",    0,   58,  166082,"AIS","B1","B1","B1","B1","PISd",0,0,0,1,"B1", 0,15,   0, 0,    0,"AIS","N/A    ","OK ","OK ",    000645.503,    -033.647,    0130.139,    0015.829,    0050.146
"FRM_AIS_EDR_2004.DAT           ",2005-08-06T21:08:59.82 ,"1/0071442534.43571",    0,   59,  166082,"AIS","B1","B1","B1","B1","PISd",0,0,0,1,"B1", 0,15,   0, 0,    0,"AIS","N/A    ","OK ","OK ",    000637.879,    -033.229,    0130.145,    0015.832,    0050.220
"FRM_AIS_EDR_2004.DAT           ",2005-08-06T21:09:07.36 ,"1/0071442542.13634",    0,   60,  166082,"AIS","B1","B1","B1","B1","PISd",0,0,0,1,"B1", 0,15,   0, 0,    0,"AIS","N/A    ","OK ","OK ",    000630.321,    -032.809,    0130.150,    0015.834,    0050.297
"FRM_AIS_EDR_2004.DAT           ",2005-08-06T21:09:14.91 ,"1/0071442549.49233",    0,   61,  166082,"AIS","B1","B1","B1","B1","PISd",0,0,0,1,"B1", 0,15,   0, 0,    0,"AIS","N/A    ","OK ","OK ",    000622.830,    -032.388,    0130.154,    0015.836,    0050.376
"FRM_AIS_EDR_2004.DAT           ",2005-08-06T21:09:22.45 ,"1/0071442557.19297",    0,   62,  166082,"AIS","B1","B1","B1","B1","PISd",0,0,0,1,"B1", 0,15,   0, 0,    0,"AIS","N/A    ","OK ","OK ",    000615.407,    -031.966,    0130.159,    0015.839,    0050.459
"FRM_AIS_EDR_2004.DAT           ",2005-08-06T21:09:29.99 ,"1/0071442564.54896",    0,   63,  166082,"AIS","B1","B1","B1","B1","PISd",0,0,0,1,"B1", 0,15,   0, 0,    0,"AIS","N/A    ","OK ","OK ",    000608.052,    -031.542,    0130.163,    0015.841,    0050.544
"FRM_AIS_EDR_2004.DAT           ",2005-08-06T21:09:37.54 ,"1/0071442572.24959",    0,   64,  166082,"AIS","B1","B1","B1","B1","PISd",0,0,0,1,"B1", 0,15,   0, 0,    0,"AIS","N/A    ","OK ","OK ",    000600.767,    -031.116,    0130.168,    0015.844,    0050.632
"FRM_AIS_EDR_2004.DAT           ",2005-08-06T21:09:45.08 ,"1/0071442579.60559",    0,   65,  166082,"AIS","B1","B1","B1","B1","PISd",0,0,0,1,"B1", 0,15,   0, 0,    0,"AIS","N/A    ","OK ","OK ",    000593.551,    -030.689,    0130.172,    0015.846,    0050.723
"FRM_AIS_EDR_2004.DAT           ",2005-08-06T21:09:52.62 ,"1/0071442587.30622",    0,   66,  166082,"AIS","B1","B1","B1","B1","PISd",0,0,0,1,"B1", 0,15,   0, 0,    0,"AIS","N/A    ","OK ","OK ",    000586.405,    -030.260,    0130.175,    0015.848,    0050.817
"FRM_AIS_EDR_2004.DAT           ",2005-08-06T21:10:00.17 ,"1/0071442595.00685",    0,   67,  166082,"AIS","B1","B1","B1","B1","PISd",0,0,0,1,"B1", 0,15,   0, 0,    0,"AIS","N/A    ","OK ","OK ",    000579.331,    -029.830,    0130.179,    0015.850,    0050.913
"FRM_AIS_EDR_2004.DAT           ",2005-08-06T21:10:07.71 ,"1/0071442602.36285",    0,   68,  166082,"AIS","B1","B1","B1","B1","PISd",0,0,0,1,"B1", 0,15,   0, 0,    0,"AIS","N/A    ","OK ","OK ",    000572.328,    -029.398,    0130.183,    0015.852,    0051.013
"FRM_AIS_EDR_2004.DAT           ",2005-08-06T21:10:15.25 ,"1/0071442610.06348",    0,   69,  166082,"AIS","B1","B1","B1","B1","PISd",0,0,0,1,"B1", 0,15,   0, 0,    0,"AIS","N/A    ","OK ","OK ",    000565.398,    -028.964,    0130.186,    0015.855,    0051.116
"FRM_AIS_EDR_2004.DAT           ",2005-08-06T21:10:22.79 ,"1/0071442617.41947",    0,   70,  166082,"AIS","B1","B1","B1","B1","PISd",0,0,0,1,"B1", 0,15,   0, 0,    0,"AIS","N/A    ","OK ","OK ",    000558.541,    -028.530,    0130.189,    0015.857,    0051.221
"FRM_AIS_EDR_2004.DAT           ",2005-08-06T21:10:30.34 ,"1/0071442625.12011",    0,   71,  166082,"AIS","B1","B1","B1","B1","PISd",0,0,0,1,"B1", 0,15,   0, 0,    0,"AIS","N/A    ","OK ","OK ",    000551.758,    -028.093,    0130.192,    0015.859,    0051.329
"FRM_AIS_EDR_2004.DAT           ",2005-08-06T21:10:37.88 ,"1/0071442632.47610",    0,   72,  166082,"AIS","B1","B1","B1","B1","PISd",0,0,0,1,"B1", 0,15,   0, 0,    0,"AIS","N/A    ","OK ","OK ",    000545.049,    -027.656,    0130.195,    0015.862,    0051.441
"FRM_AIS_EDR_2004.DAT           ",2005-08-06T21:10:45.42 ,"1/0071442640.17673",    0,   73,  166082,"AIS","B1","B1","B1","B1","PISd",0,0,0,1,"B1", 0,15,   0, 0,    0,"AIS","N/A    ","OK ","OK ",    000538.415,    -027.216,    0130.197,    0015.864,    0051.555
"FRM_AIS_EDR_2004.DAT           ",2005-08-06T21:10:52.97 ,"1/0071442647.53273",    0,   74,  166082,"AIS","B1","B1","B1","B1","PISd",0,0,0,1,"B1", 0,15,   0, 0,    0,"AIS","N/A    ","OK ","OK ",    000531.858,    -026.776,    0130.200,    0015.866,    0051.672
"FRM_AIS_EDR_2004.DAT           ",2005-08-06T21:11:00.51 ,"1/0071442655.23336",    0,   75,  166082,"AIS","B1","B1","B1","B1","PISd",0,0,0,1,"B1", 0,15,   0, 0,    0,"AIS","N/A    ","OK ","OK ",    000525.377,    -026.334,    0130.202,    0015.868,    0051.792
"FRM_AIS_EDR_2004.DAT           ",2005-08-06T21:11:08.05 ,"1/0071442662.58935",    0,   76,  166082,"AIS","B1","B1","B1","B1","PISd",0,0,0,1,"B1", 0,15,   0, 0,    0,"AIS","N/A    ","OK ","OK ",    000518.973,    -025.890,    0130.204,    0015.870,    0051.915
"FRM_AIS_EDR_2004.DAT           ",2005-08-06T21:11:15.60 ,"1/0071442670.28999",    0,   77,  166082,"AIS","B1","B1","B1","B1","PISd",0,0,0,1,"B1", 0,15,   0, 0,    0,"AIS","N/A    ","OK ","OK ",    000512.647,    -025.445,    0130.206,    0015.873,    0052.041
"FRM_AIS_EDR_2004.DAT           ",2005-08-06T21:11:23.14 ,"1/0071442677.64598",    0,   78,  166082,"AIS","B1","B1","B1","B1","PISd",0,0,0,1,"B1", 0,15,   0, 0,    0,"AIS","N/A    ","OK ","OK ",    000506.399,    -024.999,    0130.208,    0015.875,    0052.170
"FRM_AIS_EDR_2004.DAT           ",2005-08-06T21:11:30.68 ,"1/0071442685.34661",    0,   79,  166082,"AIS","B1","B1","B1","B1","PISd",0,0,0,1,"B1", 0,15,   0, 0,    0,"AIS","N/A    ","OK ","OK ",    000500.231,    -024.551,    0130.210,    0015.877,    0052.302
"FRM_AIS_EDR_2004.DAT           ",2005-08-06T21:11:38.23 ,"1/0071442693.04725",    0,   80,  166082,"AIS","B1","B1","B1","B1","PISd",0,0,0,1,"B1", 0,15,   0, 0,    0,"AIS","N/A    ","OK ","OK ",    000494.143,    -024.101,    0130.212,    0015.879,    0052.437
"FRM_AIS_EDR_2004.DAT           ",2005-08-06T21:11:45.77 ,"1/0071442700.40324",    0,   81,  166082,"AIS","B1","B1","B1","B1","PISd",0,0,0,1,"B1", 0,15,   0, 0,    0,"AIS","N/A    ","OK ","OK ",    000488.135,    -023.651,    0130.213,    0015.881,    0052.575
"FRM_AIS_EDR_2004.DAT           ",2005-08-06T21:11:53.31 ,"1/0071442708.10387",    0,   82,  166082,"AIS","B1","B1","B1","B1","PISd",0,0,0,1,"B1", 0,15,   0, 0,    0,"AIS","N/A    ","OK ","OK ",    000482.208,    -023.199,    0130.215,    0015.883,    0052.716
"FRM_AIS_EDR_2004.DAT           ",2005-08-06T21:12:00.86 ,"1/0071442715.45987",    0,   83,  166082,"AIS","B1","B1","B1","B1","PISd",0,0,0,1,"B1", 0,15,   0, 0,    0,"AIS","N/A    ","OK ","OK ",    000476.363,    -022.746,    0130.216,    0015.886,    0052.860
"FRM_AIS_EDR_2004.DAT           ",2005-08-06T21:12:08.40 ,"1/0071442723.16050",    0,   84,  166082,"AIS","B1","B1","B1","B1","PISd",0,0,0,1,"B1", 0,15,   0, 0,    0,"AIS","N/A    ","OK ","OK ",    000470.601,    -022.291,    0130.217,    0015.887,    0053.006
"FRM_AIS_EDR_2004.DAT           ",2005-08-06T21:12:15.94 ,"1/0071442730.51649",    0,   85,  166082,"AIS","B1","B1","B1","B1","PISd",0,0,0,1,"B1", 0,15,   0, 0,    0,"AIS","N/A    ","OK ","OK ",    000464.921,    -021.835,    0130.218,    0015.890,    0053.156
"FRM_AIS_EDR_2004.DAT           ",2005-08-06T21:12:23.49 ,"1/0071442738.21712",    0,   86,  166082,"AIS","B1","B1","B1","B1","PISd",0,0,0,1,"B1", 0,15,   0, 0,    0,"AIS","N/A    ","OK ","OK ",    000459.326,    -021.377,    0130.219,    0015.892,    0053.309
"FRM_AIS_EDR_2004.DAT           ",2005-08-06T21:12:31.03 ,"1/0071442745.57312",    0,   87,  166082,"AIS","B1","B1","B1","B1","PISd",0,0,0,1,"B1", 0,15,   0, 0,    0,"AIS","N/A    ","OK ","OK ",    000453.815,    -020.919,    0130.220,    0015.894,    0053.464
"FRM_AIS_EDR_2004.DAT           ",2005-08-06T21:12:38.57 ,"1/0071442753.27375",    0,   88,  166082,"AIS","B1","B1","B1","B1","PISd",0,0,0,1,"B1", 0,15,   0, 0,    0,"AIS","N/A    ","OK ","OK ",    000448.388,    -020.459,    0130.221,    0015.896,    0053.623
"FRM_AIS_EDR_2004.DAT           ",2005-08-06T21:12:46.12 ,"1/0071442760.62974",    0,   89,  166082,"AIS","B1","B1","B1","B1","PISd",0,0,0,1,"B1", 0,15,   0, 0,    0,"AIS","N/A    ","OK ","OK ",    000443.048,    -019.998,    0130.221,    0015.898,    0053.784
"FRM_AIS_EDR_2004.DAT           ",2005-08-06T21:12:53.66 ,"1/0071442768.33038",    0,   90,  166082,"AIS","B1","B1","B1","B1","PISd",0,0,0,1,"B1", 0,15,   0, 0,    0,"AIS","N/A    ","OK ","OK ",    000437.793,    -019.535,    0130.222,    0015.900,    0053.948